Toledo, OH

8:02 AM EDT on April 30, 2017 (GMT -0400)
Toledo Express

Weather History for KTOL - August, 2014

Change the Weather History Date:

Tuesday, August 5, 2014

  Actual Average Record
Temperature  
Mean Temperature 69 °F 72 °F  
Max Temperature 77 °F 83 °F 102 °F (1918)
Min Temperature 61 °F 62 °F 43 °F (1972)
Degree Days  
Heating Degree Days 0 0  
Month to date heating degree days 0 0  
Since 1 June heating degree days 25 38  
Since 1 July heating degree days 9 3  
Cooling Degree Days 4 8  
Month to date cooling degree days 26 40  
Year to date cooling degree days 416 528  
Since 1 June cooling degree days 354 475  
Growing Degree Days 19 (Base 50)    
Moisture  
Dew Point 63 °F    
Average Humidity 82    
Maximum Humidity 100    
Minimum Humidity 64    
Precipitation  
Precipitation T in 0.11 in 1.98 in (1977)
Month to date precipitation 0.09 0.55  
Year to date precipitation 18.75 20.72  
Snow  
Snow 0.00 in 0.00 in - ()
Month to date snowfall 0.0 0.0  
Since 1 June snowfall 0.0 0.0  
Since 1 July snowfall 0.0 0.0  
Snow Depth 0.00 in    
Sea Level Pressure  
Sea Level Pressure 30.04 in    
Wind  
Wind Speed 2 mph (WNW)    
Max Wind Speed 10 mph    
Max Gust Speed 14 mph    
Visibility 6 miles    
Events Rain    
T = Trace of Precipitation, MM = Missing Value Source: NWS Daily Summary

Daily Weather History Graph

Daily Weather History Graph

Search for Another Location

Airport or City:

Trip Planner

Search our weather history database for the weather conditions in past years. The results will help you decide how hot, cold, wet, or windy it might be!

Date:

Astronomy

Aug. 05, 2014 Rise Set
Actual Time 6:33 AM EDT 8:48 PM EDT
Civil Twilight 6:02 AM EDT 9:18 PM EDT
Nautical Twilight 5:24 AM EDT 9:56 PM EDT
Astronomical Twilight 4:42 AM EDT 10:38 PM EDT
Moon 4:02 PM EDT (8/5) 1:20 AM EDT (8/5)
Length of Visible Light 15h 15m
Length of Day
14h 14m
Waxing Gibbous, 67% of the Moon is Illuminated
Aug 5
Waxing Gibbous
Aug 10
Full
Aug 17
Last Quarter
Aug 25
New
Sep 2
First Quarter

Hourly Weather History & Observations

Time (EDT) Temp. Dew Point Humidity Pressure Visibility Wind Dir Wind Speed Gust Speed Precip Events Conditions
12:52 AM 64.0 °F 63.0 °F 96% 30.05 in 7.0 mi Calm Calm - N/A   Clear
1:52 AM 63.0 °F 62.1 °F 97% 30.04 in 6.0 mi Calm Calm - N/A   Clear
2:52 AM 63.0 °F 62.1 °F 97% 30.04 in 3.0 mi Calm Calm - N/A   Clear
3:52 AM 62.1 °F 62.1 °F 100% 30.03 in 5.0 mi Calm Calm - N/A   Partly Cloudy
4:08 AM 62.6 °F 60.8 °F 94% 30.04 in 1.8 mi Calm Calm - N/A   Partly Cloudy
4:17 AM 62.6 °F 60.8 °F 94% 30.03 in 3.0 mi Calm Calm - N/A   Clear
4:52 AM 63.0 °F 61.0 °F 93% 30.02 in 5.0 mi Calm Calm - N/A   Clear
5:26 AM 62.6 °F 60.8 °F 94% 30.03 in 2.5 mi Calm Calm - N/A   Clear
5:42 AM 62.6 °F 60.8 °F 94% 30.03 in 1.8 mi Calm Calm - N/A   Clear
5:52 AM 62.6 °F 60.8 °F 94% 30.03 in 2.5 mi Calm Calm - N/A   Scattered Clouds
6:00 AM 62.6 °F 62.6 °F 100% 30.03 in 3.0 mi Calm Calm - N/A   Mostly Cloudy
6:52 AM 63.0 °F 62.1 °F 97% 30.03 in 2.5 mi Calm Calm - N/A   Clear
7:13 AM 62.6 °F 62.6 °F 100% 30.05 in 1.8 mi Calm Calm - N/A   Clear
7:24 AM 62.6 °F 62.6 °F 100% 30.05 in 2.5 mi Calm Calm - N/A   Clear
7:50 AM 64.4 °F 62.6 °F 94% 30.06 in 3.0 mi WNW 4.6 mph - N/A   Scattered Clouds
7:52 AM 64.9 °F 63.0 °F 93% 30.05 in 3.0 mi West 3.5 mph - N/A   Scattered Clouds
8:52 AM 66.9 °F 64.0 °F 90% 30.06 in 4.0 mi Calm Calm - N/A   Partly Cloudy
9:52 AM 71.1 °F 64.0 °F 78% 30.07 in 10.0 mi North 8.1 mph - N/A   Partly Cloudy
10:52 AM 73.0 °F 64.0 °F 73% 30.07 in 10.0 mi North 5.8 mph - N/A   Mostly Cloudy
11:52 AM 73.9 °F 64.0 °F 71% 30.07 in 10.0 mi ENE 4.6 mph - N/A   Mostly Cloudy
12:52 PM 73.9 °F 64.0 °F 71% 30.06 in 10.0 mi Calm Calm - N/A   Overcast
1:52 PM 75.9 °F 64.0 °F 67% 30.05 in 10.0 mi Calm Calm - N/A   Overcast
2:52 PM 75.9 °F 63.0 °F 64% 30.04 in 10.0 mi West 3.5 mph - N/A   Mostly Cloudy
3:52 PM 75.0 °F 64.9 °F 71% 30.02 in 10.0 mi WNW 4.6 mph - N/A   Overcast
4:52 PM 75.0 °F 64.0 °F 69% 30.02 in 10.0 mi WSW 4.6 mph - N/A   Overcast
5:52 PM 75.0 °F 64.9 °F 71% 30.01 in 10.0 mi Calm Calm - N/A   Overcast
6:52 PM 75.9 °F 63.0 °F 64% 30.01 in 9.0 mi SW 3.5 mph - N/A   Mostly Cloudy
7:52 PM 73.9 °F 64.0 °F 71% 30.00 in 8.0 mi SSW 3.5 mph - 0.00 in Rain Light Rain
8:52 PM 72.0 °F 64.9 °F 78% 30.00 in 8.0 mi Calm Calm - N/A   Overcast
9:52 PM 68.0 °F 66.0 °F 93% 30.01 in 5.0 mi Calm Calm - 0.00 in   Mostly Cloudy
10:52 PM 70.0 °F 66.0 °F 87% 30.01 in 8.0 mi East 4.6 mph - N/A   Overcast
11:12 PM 69.8 °F 66.2 °F 88% 30.02 in 7.0 mi ESE 3.5 mph - N/A   Mostly Cloudy